Volver al catálogo

COSMOS 2535 DEB

ActivoSSO
NORAD 44633·DEBRIS·🇷🇺 Russia

Lanzado Jul 10, 2019 desde Plesetsk Cosmodrome

Loading…

Próximos Pases (próximas 24 horas)

TLE

ActualizadoSource: Space-Track

Época: Sep 13, 2026, 04:19 UTC

1 44633U 19039K   26256.18035146  .00000980  00000-0  12557-3 0  9991
2 44633  97.7363 241.6989 0050216 117.0059 243.6295 14.82632689373725

Sigue COSMOS 2535 DEB en tiempo real con AllMySat

Download on the App Store